Location: Rounton
(54.4000°N, 1.3500°W)
Time: 22:21:41
(UTC+00:00)

Explorer 7 - Pass Details

Date: 08 December 2021
Orbit: 483 x 674 km, 50.3° (Epoch: 17 January)

Event Time Altitude Azimuth Distance (km) Brightness Sun altitude
Rises 08:47:08 0° 274° (W) 2,738 9.9 2.7°
Reaches altitude 10° 08:49:37 10° 264° (W) 1,806 9.1 3.0°
Maximum altitude 08:53:13 30° 202° (SSW) 946 8.4 3.3°
Drops below altitude 10° 08:56:39 10° 140° (SE) 1,716 12.2 3.7°
Sets 08:58:57 0° 130° (SE) 2,576 12.6 3.9°
